Other Surface Observations
Issued by NWS

Home | Current Version | Previous Version | Text Only | Print | Product List | Glossary On
Versions: 1 2 3 4 5 6 7 8 9 10 11 12 13 14 15 16 17 18 19 20 21 22 23 24 25 26 27 28 29 30 31 32 33 34 35 36 37 38 39 40 41 42 43 44 45 46 47 48 49 50
000
SXUS52 KTAE 192005
OSOTAE
OSOTAE
North Florida/South Alabama/Southwest Georgia Weather Roundup
National Weather Service Tallahassee Florida
300 PM EST THU JAN 19 2017

Note: "fair" indicates few or no clouds below 12,000 feet with no
significant weather and/or obstructions to visibility.

!FLZ017-115-028-034-025-192100
...North Florida...

CITY           SKY/WX    TMP DP  RH WIND       PRES   REMARKS
TALLAHASSEE    PTSUNNY   75  65  70 S12       29.96F
APALACHICOLA   MOSUNNY   75  70  84 S10       29.97F
PERRY          MOSUNNY   78  63  59 S10       29.97F
CROSS CITY     PTSUNNY   77  64  65 W8        29.97F
JACKSONVILLE   CLOUDY    77  59  53 S3        29.97F
$$

!FLZ112-006-005-002-011-192100
...Florida Panhandle...

CITY           SKY/WX    TMP DP  RH WIND       PRES   REMARKS
MARIANNA       PTSUNNY   78  63  59 S14G20    29.91F
BONIFAY        NOT AVBL
PANAMA CITY NW PTSUNNY   75  67  76 SE12      29.94F
TYNDALL AFB    MOSUNNY   76  67  73 S16       29.95F
TYND DRONE APT FAIR      75  68  78 S15G23    29.95F
DE FUNIAK SPR  MOCLDY    75  64  68 S10G18    29.93F
EGLIN AFB      PTSUNNY   75  67  76 S16       29.92F
DESTIN         PTSUNNY   77  70  79 S9        29.92F
HURLBURT       NOT AVBL
CRESTVIEW      PTSUNNY   76  65  68 S12       29.93F
PENSACOLA      CLOUDY    75  68  78 S14       29.90F
$$

!ALZ063-066-192100
...South Alabama...

CITY           SKY/WX    TMP DP  RH WIND       PRES   REMARKS
DOTHAN         CLOUDY    76  65  68 S8        29.95F
OZARK CAIRNS   MOSUNNY   77  64  63 S15       29.91F
FT RUCKER HELI PTSUNNY   76  63  64 S9        29.91F
RUCKER HELI 3  NOT AVBL
RUCKER HELI 2  PTSUNNY   76  64  66 VRB6      29.91F
FLORALA APT    PTSUNNY   76  62  62 S17G23    29.92F
ANDALUSIA      PTSUNNY   80  63  55 S12G18    29.89F
TROY           LGT RAIN  75  64  68 S12       29.91F
EUFALA         FAIR      79  62  56 S10       29.90F
MOBILE         CLOUDY    74  67  78 S20G31    29.87F
$$

!GAZ120>161-192100
...Southwest and South Central Georgia...

CITY           SKY/WX    TMP DP  RH WIND       PRES   REMARKS
THOMASVILLE    PTSUNNY   77  64  65 W6        29.96F
BAINBRIDGE     MOSUNNY   79  63  57 SW8       29.95F
MOODY AFB      MOSUNNY   76  61  59 S9        29.95F
VALDOSTA       PTSUNNY   72  64  76 S6        29.97F
MOULTRIE       PTSUNNY   75  61  60 S3        29.97F
BLAKELY        MOSUNNY   79  63  57 S7        29.94F
ALBANY         PTSUNNY   77  61  57 S9        29.96F
TIFTON         PTSUNNY   76  62  60 SW7       29.96S
FITZGERALD     MOCLDY    76  62  62 SW3       29.98F
CORDELE        MOCLDY    78  60  54 S7        29.96F
AMERICUS       FAIR      73  55  53 S9        29.96F
HOMERVILLE     PTSUNNY   77  63  61 SW5       29.97F
$$

!GMZ750-755-770-775-192100
...Coastal and Buoy Obs...

STATION/POSITION TIME  TEMP    WIND        PRES    VSBY  WAVE
                       AIR SEA DIR/SP/G                  HT/PER
                 (UTC) (F)     (DEG/KT/KT) (MB)    (MI)  (FT/S)
KEATON BEACH     2000   66     190/  7/  8 1014.9F
CEDAR KEY        1900   69     220/  5/  6 1016.4F
C TOWER          2000   69     160/ 12/ 12 1015.5F
APALACHICOLA BUO 1850   74 73  160/ 12/ 16 1015.4          1/ 2
PANAMA CITY BUOY 1850   75 75              1015.1          2/ 3
MOBILE BUOY      NOT AVBL
ORANGE BCH AL BU 1850   69 66  200/ 10/ 10 1013.5          2/ 6
$$




USA.gov is the U.S. government's official web portal to all federal, state and local government web resources and services.